sat.trackr.live / text

‹ back to catalog

2023-072E

NORAD 56747 · 2023-072E

PAYLOAD ACTIVE UNKNOWN

§ Identity

Operator
Country
SKOR
Launch date
2023-05-25
Launch site
NSC
Launch vehicle
Mass (kg)
RCS (m²)

External: N2YO · Heavens-Above · Gunter

§ Orbital elements

Epoch: 2026-05-25T04:15:17.193312Z

Period
93.10 min
Inclination
97.5086°
Eccentricity
0.0005265
Mean motion
15.46798230 rev/d
Perigee alt
422.5 km
Apogee alt
429.7 km
Semi-major
6,804.2 km
B*
4.7971e-4
RAAN
353.5606°
Arg perigee
78.7294°
Mean anomaly
281.4547°
Rev number
16,682

§ Raw data

2023-072E1 56747U 23072E   26145.17728233  .00024008  00000+0  47971-3 0  99982 56747  97.5086 353.5606 0005265  78.7294 281.4547 15.46798230166828

JSON: /api/v1/satellites/56747 · /tle

For live sub-satellite position, see the globe view (requires WebGL).

§ Visibility from observer

Set your observer location to see the next 7 days of passes ≥ 10°. The values pass through the URL so the page stays shareable.

No JS? Fill the form by hand. The geolocation button needs JavaScript.